Location: Artiguedieu
(43.5000°N, 0.5454°E)
Time: 20:57:44
(UTC+00:00)

Transit 2A - Pass Details

Date: 02 August 2021
Orbit: 594 x 964 km, 66.7° (Epoch: 28 September)

Event Time Altitude Azimuth Distance (km) Brightness Sun altitude
Rises 06:19:31 0° 222° (SW) 2,828 8.5 14.8°
Reaches altitude 10° 06:21:44 10° 227° (SW) 1,946 7.7 15.2°
Maximum altitude 06:26:00 55° 306° (NW) 754 6.0 16.0°
Drops below altitude 10° 06:30:36 10° 24° (NNE) 2,093 8.8 16.8°
Sets 06:33:04 0° 29° (NNE) 3,066 9.7 17.2°
